Overview Statistics Trail Chart Weather Telemetry Raw packets
 

This is the latest recevied weather packets stored in our database for station/object OE3CJB-13. If no packets are shown the sender has not sent any weather packets the latest 10 day(s).

<< 2 3 4 5 6 7 8 >>
Time Temp. Humidity Pressure Rain* Wind** Luminosity Snow
1788625865 23.33° C 38% 1200.5 hPa 0 mm - - -
1788624965 23.89° C 37% 1199 hPa 0 mm - - -
1788624054 23.89° C 35% 1197.4 hPa 0 mm - - -
1788623136 24.44° C 35% 1198.2 hPa 0 mm - - -
1788622224 24.44° C 36% 1197.2 hPa 0 mm - - -
1788621366 24.44° C 35% 1196.5 hPa 0 mm - - -
1788620454 25° C 36% 1196.6 hPa 0 mm - - -
1788619535 25° C 36% 1195 hPa 0 mm - - -
1788618623 25° C 37% 1193.5 hPa 0 mm - - -
1788617766 25° C 38% 1193.5 hPa 0 mm - - -
1788616868 24.44° C 39% 1192.7 hPa 0 mm - - -
1788615936 24.44° C 41% 1192.9 hPa 0 mm - - -
1788615024 24.44° C 41% 1191.5 hPa 0 mm - - -
1788614165 23.89° C 43% 1190.8 hPa 0 mm - - -
1788613249 23.89° C 44% 1190.2 hPa 0 mm - - -
1788612335 23.33° C 46% 1190.2 hPa 0 mm - - -
1788611424 22.78° C 49% 1190.3 hPa 0 mm - - -
1788610566 22.22° C 50% 1190.3 hPa 0 mm - - -
1788609650 22.22° C 50% 1190.2 hPa 0 mm - - -
1788608766 22.22° C 54% 1189.5 hPa 0 mm - - -
1788607823 21.67° C 54% 1180.5 hPa 0 mm - - -
1788606966 21.11° C 56% 1178.3 hPa 0 mm - - -
1788606078 21.11° C 62% 1176.8 hPa 0 mm - - -
1788605136 20.56° C 67% 1175.2 hPa 0 mm - - -
1788604223 20° C 73% 1175.3 hPa 0 mm - - -

* Rain latest hour (hover to see other rain measurements)
** Current wind speed in m/s (hover to see current wind gust speed)